DW0542 Weather Reports


Display with metric or nautical units.
time (UTC)temp
F
wind
direction
speed
MPH
gust
MPH
rain 1hr
in
rain 24hr
in
rain mn
in
humidity
%
barometer
mb
20200331213108 46 322 5.0 9.0 0.00 0.03 0.01 48 1015.3
20200331211556 48 305 0.0 4.0 0.00 0.10 0.01 47 1015.4
20200331210030 46 297 0.0 4.0 0.00 0.10 0.01 55 1015.4
20200331204527 45 288 0.0 3.0 0.00 0.10 0.01 54 1015.6
20200331203034 44 287 3.0 8.0 0.00 0.10 0.01 56 1015.7
20200331201538 44 273 0.0 5.0 0.00 0.13 0.01 59 1016.0
20200331200022 44 295 0.0 5.0 0.00 0.13 0.01 59 1016.2
20200331194528 43 294 0.0 0.0 0.00 0.13 0.01 61 1016.4
20200331193018 42 298 0.0 0.0 0.00 0.13 0.01 62 1016.4
20200331191520 41 298 0.0 8.0 0.00 0.13 0.01 65 1016.6
20200331190014 41 291 2.0 6.0 0.00 0.13 0.01 65 1016.9
20200331184507 41 280 2.0 9.0 0.00 0.13 0.01 66 1016.8
20200331183015 40 241 0.0 7.0 0.00 0.13 0.01 66 1016.9
20200331181505 40 283 5.0 10.0 0.00 0.13 0.01 68 1017.0
20200331180006 40 249 5.0 7.0 0.00 0.13 0.01 68 1017.1
20200331174622 39 297 4.0 8.0 0.00 0.13 0.01 70 1017.3
20200331173155 39 278 4.0 9.0 0.00 0.13 0.01 72 1017.2
20200331171746 38 303 7.0 13.0 0.00 0.13 0.01 73 1017.3
20200331170142 37 303 6.0 15.0 0.00 0.13 0.01 75 1017.3
20200331164642 37 313 11.0 16.0 0.00 0.13 0.01 77 1017.3
20200331163016 37 328 2.0 13.0 0.00 0.13 0.01 75 1017.3
20200331161511 37 326 9.0 14.0 0.00 0.13 0.01 76 1017.5
20200331160038 37 313 5.0 17.0 0.00 0.13 0.01 78 1017.7
20200331154513 37 66 7.0 18.0 0.00 0.13 0.01 76 1017.5
20200331153301 37 344 6.0 17.0 0.00 0.13 0.01 76 1018.0
20200331151629 37 339 5.0 15.0 0.00 0.13 0.01 75 1018.0
20200331150200 37 349 3.0 16.0 0.00 0.13 0.01 75 1018.3
20200331144622 39 322 3.0 9.0 0.00 0.13 0.01 70 1018.3
20200331143136 38 339 0.0 5.0 0.00 0.13 0.01 73 1018.7
20200331141550 38 22 0.0 13.0 0.00 0.13 0.01 74 1018.9
20200331140109 37 357 0.0 11.0 0.00 0.13 0.01 77 1018.8
20200331134624 35 332 0.0 10.0 0.00 0.13 0.01 79 1018.9
20200331133050 35 331 4.0 11.0 0.00 0.13 0.01 79 1019.1
20200331131545 35 339 1.0 8.0 0.00 0.13 0.01 81 1019.2
20200331130207 34 349 0.0 4.0 0.00 0.13 0.01 82 1019.5
20200331124603 34 339 0.0 6.0 0.00 0.13 0.01 84 1019.5
20200331123110 34 31 0.0 3.0 0.00 0.13 0.01 85 1019.4
20200331121554 34 331 3.0 8.0 0.00 0.13 0.01 86 1019.5
20200331120052 33 329 1.0 4.0 0.00 0.13 0.01 87 1019.3
20200331114640 33 339 1.0 5.0 0.00 0.13 0.01 88 1019.3
20200331113040 34 339 0.0 6.0 0.00 0.13 0.01 89 1019.1
20200331111534 34 327 0.0 6.0 0.00 0.13 0.01 89 1018.8
20200331110040 33 327 0.0 6.0 0.01 0.13 0.01 89 1018.5
20200331104536 33 329 1.0 6.0 0.01 0.13 0.01 89 1018.2
20200331103041 33 344 0.0 3.0 0.01 0.13 0.01 89 1018.1
20200331101530 33 339 0.0 3.0 0.01 0.13 0.01 89 1017.9
20200331100056 34 20 0.0 5.0 0.00 0.12 0.00 89 1017.8
20200331094518 34 355 0.0 5.0 0.00 0.12 0.00 90 1017.6
20200331093012 34 339 0.0 9.0 0.00 0.12 0.00 90 1017.4
20200331090034 34 339 0.0 5.0 0.00 0.12 0.00 90 1017.4
20200331084509 34 3 0.0 3.0 0.00 0.12 0.00 90 1017.4
20200331083057 35 335 1.0 6.0 0.00 0.12 0.00 90 1017.4
20200331081529 35 339 0.0 8.0 0.00 0.12 0.00 90 1017.5
20200331080009 35 320 0.0 3.0 0.00 0.12 0.00 89 1017.5
20200331074506 35 331 1.0 5.0 0.00 0.12 0.00 90 1017.5
20200331073010 35 331 0.0 5.0 0.00 0.12 0.00 90 1017.4
20200331071534 35 326 0.0 6.0 0.00 0.12 0.00 89 1017.3
20200331070036 35 334 0.0 0.0 0.00 0.12 0.00 89 1017.3
20200331064502 35 339 0.0 3.0 0.00 0.12 0.00 89 1017.4
20200331063000 35 332 0.0 5.0 0.00 0.12 0.00 89 1017.5
20200331061653 35 344 0.0 3.0 0.00 0.12 0.00 89 1017.5
20200331060301 36 349 0.0 5.0 0.00 0.12 0.00 89 1017.4
20200331054657 36 349 0.0 4.0 0.00 0.12 0.00 89 1017.3
20200331053108 36 344 0.0 3.0 0.00 0.12 0.00 89 1017.3
20200331051615 36 339 0.0 8.0 0.00 0.12 0.00 89 1017.4
20200331050154 36 339 0.0 9.0 0.00 0.12 0.00 89 1017.2
20200331044555 36 334 1.0 5.0 0.00 0.12 0.00 89 1016.9
20200331043205 36 8 0.0 2.0 0.00 0.12 0.00 89 1017.0
20200331041612 36 66 3.0 12.0 0.00 0.12 0.12 89 1016.9
20200331040130 36 26 0.0 4.0 0.01 0.12 0.12 89 1017.1
20200331034558 36 322 0.0 3.0 0.01 0.12 0.12 89 1017.0
20200331033127 36 70 0.0 8.0 0.01 0.12 0.12 89 1017.4
20200331031614 36 357 0.0 3.0 0.01 0.14 0.12 89 1017.5
20200331030104 37 349 0.0 2.0 0.00 0.13 0.11 89 1017.4
20200331024610 37 48 1.0 8.0 0.00 0.13 0.11 89 1017.3
20200331023111 37 45 0.0 11.0 0.00 0.13 0.11 89 1017.1
20200331021646 37 52 0.0 8.0 0.00 0.16 0.11 89 1017.1
20200331020100 37 33 0.0 11.0 0.00 0.16 0.11 89 1016.9
20200331014619 37 103 0.0 4.0 0.00 0.16 0.11 88 1016.8
20200331013110 37 344 0.0 8.0 0.00 0.16 0.11 88 1016.9
20200331011622 37 308 0.0 6.0 0.00 0.21 0.11 89 1016.9
20200331010147 38 357 0.0 4.0 0.00 0.21 0.11 89 1016.8
20200331004554 38 344 0.0 2.0 0.00 0.21 0.11 89 1016.6
20200331003113 38 332 0.0 4.0 0.00 0.21 0.11 89 1016.4
20200331001546 38 324 0.0 4.0 0.00 0.22 0.11 89 1016.4
20200330234556 38 27 0.0 5.0 0.00 0.22 0.11 89 1016.1
20200330233132 38 257 0.0 3.0 0.00 0.22 0.11 89 1015.7
20200330231538 38 37 0.0 6.0 0.00 0.23 0.11 89 1015.6
20200330230113 38 62 0.0 4.0 0.00 0.23 0.11 88 1015.5
20200330224648 39 20 0.0 6.0 0.00 0.23 0.11 89 1015.3
20200330223043 39 344 0.0 1.0 0.00 0.23 0.11 88 1015.2
20200330221542 39 48 0.0 4.0 0.01 0.25 0.11 89 1014.8
20200330220043 39 60 0.0 6.0 0.02 0.25 0.11 89 1014.5
20200330214602 39 49 0.0 8.0 0.05 0.25 0.11 89 1014.1